Home   Weather   Stavanger   Past weeks

Flag for Norway Past Weather in Stavanger, Norway — Yesterday and Last 2 Weeks

Now
39 °F

Fog.


Feels Like: 37 °F
Forecast: 34 / 37 °F
Wind: 3 mph from North

Location: Stavanger / Sola

Current Time: Jan 21, 2017 at 4:46:38 pm

Latest Report: Jan 21, 2017 at 3:50 pm


Visibility: 0 mi

Pressure: 30.39 "Hg

Humidity: 93%

Dew Point: 37 °F

Location of StavangerLocation

Past Weather in Stavanger — Graph

°F

Stavanger Temperature Yesterday

Maximum temperature yesterday: 45 °F (at 12:20 am)
Minimum temperature yesterday: 43 °F (at 6:50 am)
Average temperature yesterday: 44 °F

High & Low Weather Summary for the Past Weeks

 TemperatureHumidityPressure
High45 °F (Jan 6, 10:20 pm)100% (Jan 6, 4:20 pm)30.48 "Hg (Jan 6, 4:20 pm)
Low16 °F (Jan 16, 4:50 am)47% (Jan 16, 1:50 pm)28.53 "Hg (Jan 11, 9:20 am)
Average38 °F86%29.93 "Hg
* Reported Jan 6 3:20 pm — Jan 21 3:20 pm, Stavanger, Weather by CustomWeather, © 2017

Note: Actual official high and low records may vary slightly from our data, if they occured in-between our weather recording intervals... More about our weather records

Advertising

Stavanger Weather History for the Previous 24 Hours

Scroll right to see more
 ConditionsComfort  
Time TempWeatherWind HumidityBarometerVisibility
3:20 pm
Sat, Jan 21
39 °FFog.6 mph100%30.39 "Hg1 mi
2:50 pm39 °FFog.6 mph100%30.39 "Hg1 mi
2:20 pm39 °FFog.7 mph100%30.39 "Hg1 mi
1:50 pm39 °FFog.8 mph100%30.42 "Hg1 mi
1:20 pm41 °FFog.9 mph93%30.42 "Hg1 mi
12:50 pm41 °FPartly sunny.9 mph100%30.42 "Hg4 mi
12:20 pm43 °FFog.10 mph93%30.42 "Hg4 mi
11:50 am41 °FFog.7 mph100%30.45 "Hg4 mi
11:20 am41 °FFog.5 mph100%30.45 "Hg0 mi
10:50 am41 °FFog.3 mph100%30.45 "Hg0 mi
10:20 am41 °FFog.3 mph100%30.45 "Hg1 mi
9:50 am41 °FFog.3 mph100%30.45 "Hg1 mi
9:20 am41 °FFog.5 mph100%30.45 "Hg2 mi
8:50 am43 °FPassing clouds.5 mph93%30.45 "Hg4 mi
8:20 am43 °FPassing clouds.3 mph93%30.45 "Hg6 mi
7:50 am43 °FPassing clouds.3 mph93%30.45 "Hg6 mi
7:20 am43 °FPassing clouds.5 mph93%30.45 "HgN/A
6:50 am43 °FPassing clouds.7 mph93%30.45 "HgN/A
6:20 am43 °FPartly cloudy.2 mph93%30.45 "HgN/A
5:50 am41 °FPassing clouds.2 mph100%30.45 "HgN/A
5:20 am43 °FPassing clouds.1 mph93%30.45 "HgN/A
4:50 am43 °FPassing clouds.2 mph93%30.45 "HgN/A
3:50 am41 °FPassing clouds.3 mph100%30.48 "HgN/A
2:50 am41 °FPartly cloudy.6 mph93%30.48 "Hg6 mi
1:50 am43 °FPartly cloudy.9 mph93%30.48 "HgN/A
12:50 am43 °FPartly cloudy.9 mph100%30.48 "HgN/A
11:50 pm
Fri, Jan 20
43 °FPartly cloudy.10 mph100%30.48 "Hg6 mi
11:20 pm45 °FPassing clouds.9 mph93%30.48 "Hg6 mi
10:50 pm45 °FPartly cloudy.9 mph93%30.48 "Hg5 mi
10:20 pm45 °FPassing clouds.9 mph93%30.48 "Hg6 mi
9:50 pm45 °FPassing clouds.7 mph93%30.48 "HgN/A
9:20 pm45 °FPartly cloudy.7 mph93%30.48 "HgN/A
8:50 pm45 °FSleet. Partly cloudy.7 mph93%30.48 "HgN/A
8:20 pm45 °FSleet. Passing clouds.8 mph93%30.48 "HgN/A
7:50 pm45 °FSleet. Passing clouds.8 mph93%30.48 "HgN/A
7:20 pm45 °FPartly cloudy.8 mph93%30.45 "Hg6 mi
6:50 pm45 °FPassing clouds.8 mph93%30.45 "Hg5 mi
6:20 pm45 °FPartly cloudy.8 mph93%30.45 "Hg6 mi
5:50 pm45 °FScattered showers. Partly cloudy.8 mph93%30.45 "Hg6 mi
5:20 pm45 °FPartly cloudy.7 mph93%30.45 "Hg4 mi
4:50 pm45 °FPartly cloudy.10 mph93%30.45 "Hg6 mi
4:20 pm45 °FBroken clouds.14 mph93%30.45 "HgN/A
Weather by CustomWeather, © 2017

See weather overviewHow to use our weather pages